Location: Tel Aviv
(32.0670°N, 34.7670°E)
Time: 09:40:28
(UTC+02:00)

Transit 2A Rocket - Pass Details

Date: 12 December 2023
Orbit: 590 x 905 km, 66.7° (Epoch: 01 March)

Event Time Altitude Azimuth Distance (km) Brightness Sun altitude
Exits shadow 05:51:51 10° 281° (W) 2,046 6.6 -8.5°
Maximum altitude 05:53:59 13° 253° (WSW) 1,879 6.6 -8.1°
Drops below altitude 10° 05:56:12 10° 225° (SW) 2,128 7.1 -7.7°
Sets 05:59:50 0° 199° (SSW) 3,118 8.2 -7.0°
